Location: Sternwarte auf dem Internationalen Platz Vogelsang IP
(50.5721°N, 6.4398°E)
Time: 19:02:33
(UTC+01:00)

Transit 2A Rocket - Pass Details

Date: 11 December 2025
Orbit: 581 x 903 km, 66.7° (Epoch: 15 January)

Event Time Altitude Azimuth Distance (km) Brightness Sun altitude
Rises 09:41:23 0° 209° (SSW) 3,289 8.6 7.8°
Reaches altitude 10° 09:43:44 10° 207° (SSW) 2,406 8.0 8.0°
Maximum altitude 09:49:19 75° 123° (ESE) 896 5.8 8.5°
Drops below altitude 10° 09:55:19 10° 40° (NE) 2,571 7.6 9.1°
Sets 09:57:53 0° 39° (NE) 3,529 8.3 9.3°
